This is the latest recevied weather packets stored in our database for station/object IU1OPQ-3. If no packets are shown the sender has not sent any weather packets the latest 10 day(s).
| Time | Temp. | Humidity | Pressure | Rain* | Wind** | Luminosity | Snow |
|---|---|---|---|---|---|---|---|
| 1778228100 | 12.22° C | 89% | 1016 hPa | 0 mm | - | - | - |
| 1778227201 | 11.67° C | 89% | 1015.8 hPa | 0 mm | - | - | - |
| 1778226301 | 11.67° C | 88% | 1015.5 hPa | 0 mm | - | - | - |
| 1778225401 | 11.67° C | 88% | 1015.5 hPa | 0 mm | - | - | - |
| 1778224501 | 11.67° C | 88% | 1015.3 hPa | 0 mm | - | - | - |
| 1778223601 | 12.22° C | 86% | 1015.3 hPa | 0 mm | - | - | - |
| 1778222701 | 12.22° C | 85% | 1015.4 hPa | 0 mm | - | - | - |
| 1778221801 | 12.22° C | 85% | 1015.2 hPa | 0 mm | - | - | - |
| 1778220901 | 12.22° C | 84% | 1015.1 hPa | 0 mm | - | - | - |
| 1778220001 | 11.67° C | 85% | 1014.9 hPa | 0 mm | - | - | - |
| 1778219100 | 11.67° C | 85% | 1014.7 hPa | 0 mm | - | - | - |
| 1778218201 | 11.67° C | 87% | 1014.8 hPa | 0 mm | - | - | - |
| 1778217301 | 11.67° C | 86% | 1014.5 hPa | 0 mm | - | - | - |
| 1778216401 | 11.67° C | 85% | 1014.5 hPa | 0 mm | - | - | - |
| 1778215500 | 11.67° C | 83% | 1014.5 hPa | 0 mm | - | - | - |
| 1778214601 | 11.67° C | 82% | 1014.2 hPa | 0 mm | - | - | - |
| 1778213700 | 12.22° C | 82% | 1014.1 hPa | 0 mm | - | - | - |
| 1778212800 | 12.22° C | 82% | 1014.1 hPa | 0 mm | - | - | - |
| 1778211901 | 11.67° C | 84% | 1014.1 hPa | 0 mm | - | - | - |
| 1778211000 | 12.22° C | 82% | 1014 hPa | 0 mm | - | - | - |
| 1778210101 | 12.22° C | 83% | 1013.8 hPa | 0 mm | - | - | - |
| 1778209200 | 12.22° C | 82% | 1014 hPa | 0 mm | - | - | - |
| 1778208300 | 12.78° C | 79% | 1013.9 hPa | 0 mm | - | - | - |
| 1778207402 | 12.78° C | 81% | 1013.8 hPa | 0 mm | - | - | - |
| 1778206502 | 12.22° C | 82% | 1013.9 hPa | 0 mm | - | - | - |
* Rain latest hour (hover to see other rain measurements)
** Current wind speed in m/s (hover to see current wind gust speed)